Regional Weather Roundup
Issued by NWS

Home | Current Version | Previous Version | Graphics & Text | Print | Product List | Glossary On
Versions: 1 2 3 4 5 6 7 8 9 10 11 12 13 14 15 16 17 18 19 20 21 22 23 24 25 26 27 28 29 30 31 32 33 34 35 36 37 38 39 40 41 42 43 44 45 46 47 48 49 50
000
ASUS43 KMKX 031811
RWRWI

WISCONSIN REGIONAL WEATHER ROUNDUP
NATIONAL WEATHER SERVICE MILWAUKEE/SULLIVAN WI
100 PM CDT THU SEP 03 2015

NOTE: "FAIR" INDICATES FEW OR NO CLOUDS BELOW 12,000 FEET WITH NO
SIGNIFICANT WEATHER AND/OR OBSTRUCTIONS TO VISIBILITY.

WIZ001-002-006>008-014>016-023>028-031900-
NORTHWEST WISCONSIN

CITY           SKY/WX    TMP DP  RH WIND       PRES   REMARKS
SUPERIOR ARPT  CLOUDY    61  61  99 NE10      29.99F FOG
6HR MIN TEMP:  58; 6HR MAX TEMP:  61;

ASHLAND        PTSUNNY   70  67  90 N6        29.99F
6HR MIN TEMP:  61; 6HR MAX TEMP:  70;

HAYWARD        SUNNY     74  64  71 SE8       29.98F
6HR MIN TEMP:  63; 6HR MAX TEMP:  74;

SIREN          SUNNY     77  66  68 E3        29.96S
6HR MIN TEMP:  63; 6HR MAX TEMP:  77;

CUMBERLAND     SUNNY     75  64  69 E6        29.97S
RICE LAKE      MOSUNNY   77  67  69 SE5       29.98S
6HR MIN TEMP:  59; 6HR MAX TEMP:  77; 6HR PCP:  0.01;

CHETEK         SUNNY     77  68  72 CALM      29.96S
LADYSMITH      SUNNY     78  66  66 E6        29.99S HX  80
6HR MIN TEMP:  64; 6HR MAX TEMP:  78; 6HR PCP:  0.29;

EAU CLAIRE     MOSUNNY   75  66  73 E7        29.94F
6HR MIN TEMP:  66; 6HR MAX TEMP:  75;

MENOMONIE      MOSUNNY   78  68  71 E6        29.95F
6HR MIN TEMP:  68; 6HR MAX TEMP:  78;

NEW RICHMOND   MOSUNNY   77  69  76 E8        29.95S
6HR MIN TEMP:  67; 6HR MAX TEMP:  77;

OSCEOLA        PTSUNNY   78  74  86 E7        29.96F HX  81
6HR MIN TEMP:  67; 6HR MAX TEMP:  79;

$$

WIZ003>005-009-010-017-018-031900-
NORTH CENTRAL WISCONSIN

CITY           SKY/WX    TMP DP  RH WIND       PRES   REMARKS
MANITOWISH WTR MOSUNNY   76  62  61 NE6       30.00F
6HR MIN TEMP:  60; 6HR MAX TEMP:  76;

ARBOR VITAE    MOSUNNY   77  65  66 SE7       30.00S
6HR MIN TEMP:  63; 6HR MAX TEMP:  77;

WOODRUFF       MOSUNNY   77  65  66 SE7       30.00S
6HR MIN TEMP:  63; 6HR MAX TEMP:  77;

RHINELANDER    CLOUDY    73  63  70 NE7       30.01S
6HR MIN TEMP:  64; 6HR MAX TEMP:  76;

EAGLE RIVER    MOSUNNY   76  61  60 E5        30.01S
6HR MIN TEMP:  61; 6HR MAX TEMP:  76;

LAND O LAKES   PTSUNNY   76  62  62 E5        30.02S
6HR MIN TEMP:  58; 6HR MAX TEMP:  76; 6HR PCP:  0.07;

PHILLIPS       SUNNY     77  64  64 NE6       29.99S
6HR MIN TEMP:  64; 6HR MAX TEMP:  77;

TOMAHAWK       PTSUNNY   72  64  74 CALM      30.00F
6HR MIN TEMP:  64; 6HR MAX TEMP:  73;

MEDFORD        CLOUDY    73  66  80 E8        29.99F
6HR MIN TEMP:  63; 6HR MAX TEMP:  73;

MERRILL        CLOUDY    72  65  79 NE6       29.99F
6HR MIN TEMP:  65; 6HR MAX TEMP:  72;

$$

WIZ029-030-035-036-043>047-031900-
CENTRAL WISCONSIN

CITY           SKY/WX    TMP DP  RH WIND       PRES   REMARKS
WAUSAU         CLOUDY    72  65  78 NE8       29.97S
6HR MIN TEMP:  66; 6HR MAX TEMP:  73;

MOSINEE        CLOUDY    73  66  78 E7        29.99S
MARSHFIELD     CLOUDY    73  63  70 NE7       29.98S
6HR MIN TEMP:  65; 6HR MAX TEMP:  73;

STEVENS POINT  CLOUDY    74  65  74 E7        29.98S
6HR MIN TEMP:  64; 6HR MAX TEMP:  74;

WAUPACA        CLOUDY    76  68  78 NE6       29.97S
6HR MIN TEMP:  68; 6HR MAX TEMP:  76;

WAUTOMA        MOSUNNY   76  67  73 NE7       29.97S
6HR MIN TEMP:  68; 6HR MAX TEMP:  76;

WISC RAPIDS    CLOUDY    75  64  68 E3        29.98S
6HR MIN TEMP:  67; 6HR MAX TEMP:  75;

CAMP DOUGLAS   PTSUNNY   81  77  89 N6        29.95S HX  88
$$

WIZ011>013-019>022-031-037>040-048>050-031900-
NORTHEAST WISCONSIN

CITY           SKY/WX    TMP DP  RH WIND       PRES   REMARKS
ANTIGO         CLOUDY    71  65  81 NE5       30.00S
SHAWANO        NOT AVBL
OCONTO         CLOUDY    71  71  99 N7        29.95S
6HR MIN TEMP:  66; 6HR MAX TEMP:  71; 6HR PCP:  0.05;

STURGEON BAY   CLOUDY    68  64  88 N9        29.97R
6HR MIN TEMP:  64; 6HR MAX TEMP:  70;

GREEN BAY      CLOUDY    73  68  84 NE9       29.96R
6HR MIN TEMP:  69; 6HR MAX TEMP:  76;

MANITOWOC      CLOUDY    72  67  84 MISG      29.94S
6HR MIN TEMP:  71; 6HR MAX TEMP:  75;

APPLETON       CLOUDY    73  66  78 N9        29.95S
CLINTONVILLE   CLOUDY    72  64  78 N9        29.96S
OSHKOSH        CLOUDY    73  66  78 N8        29.96R
6HR MIN TEMP:  69; 6HR MAX TEMP:  73;

$$

WIZ032>034-041-042-053>061-031900-
SOUTHWEST WISCONSIN

CITY           SKY/WX    TMP DP  RH WIND       PRES   REMARKS
LA CROSSE      MOSUNNY   86  72  62 VRB3      29.91F HX  92
6HR MIN TEMP:  69; 6HR MAX TEMP:  86;

SPARTA         SUNNY     82  68  62 NE7       29.95S HX  84
6HR MIN TEMP:  61; 6HR MAX TEMP:  82;

VIROQUA          N/A     85  71  61 CALM      29.95S HX  90
6HR MIN TEMP:  66; 6HR MAX TEMP:  85;

BOSCOBEL       MOSUNNY   88  72  58 CALM      29.92S HX  94
6HR MIN TEMP:  66; 6HR MAX TEMP:  89;

PRAIRIE DU CHI SUNNY     85  70  59 E5        29.91S HX  89
6HR MIN TEMP:  68; 6HR MAX TEMP:  85;

PLATTEVILLE    MOSUNNY   85  75  72 SW6       29.94F HX  94
6HR MIN TEMP:  68; 6HR MAX TEMP:  85;

$$

WIZ056-057-062-063-064-067-068-031900-
SOUTH CENTRAL WISCONSIN

CITY           SKY/WX    TMP DP  RH WIND       PRES   REMARKS
REEDSBURG      PTSUNNY   84  73  68 N5        29.93S HX  90
6HR MIN TEMP:  67; 6HR MAX TEMP:  84;

BARABOO/DELLS  CLOUDY    82  69  64 E5        29.94S HX  85
6HR MIN TEMP:  67; 6HR MAX TEMP:  83;

LONE ROCK      SUNNY     86  71  60 W3        29.92F HX  91
6HR MIN TEMP:  65; 6HR MAX TEMP:  88;

MINERAL POINT  SUNNY     86  72  62 SW3       29.95S HX  92
MADISON        PTSUNNY   84  71  65 NW3       29.93S HX  89
6HR MIN TEMP:  71; 6HR MAX TEMP:  85;

MIDDLETON      MOSUNNY   88  69  52 W5        29.94S HX  92
6HR MIN TEMP:  68; 6HR MAX TEMP:  88;

WATERTOWN      CLOUDY    82  75  78 NW3       29.93F HX  89
6HR MIN TEMP:  69; 6HR MAX TEMP:  83;

MONROE         MOSUNNY   86  70  58 W5        29.94F HX  90
JANESVILLE     MOSUNNY   86  70  58 CALM      29.93S HX  90
$$

WIZ051-052-058>065-066-070>072-031900-
SOUTHEAST WISCONSIN

CITY           SKY/WX    TMP DP  RH WIND       PRES   REMARKS
MILWAUKEE      PTSUNNY   80  69  69 NE8       29.92S HX  83
6HR MIN TEMP:  73; 6HR MAX TEMP:  86;

WAUKESHA       MOSUNNY   81  70  69 NW5       29.95S HX  84
MILWAUKEE/TIMM PTSUNNY   82  68  61 NW7       29.93S HX  85
RACINE         PTSUNNY   86  70  58 SW7       29.93F HX  90
6HR MIN TEMP:  73; 6HR MAX TEMP:  86;

BURLINGTON     MOSUNNY   83  69  64 W3        29.93F HX  86
6HR MIN TEMP:  66; 6HR MAX TEMP:  83;

KENOSHA        PTSUNNY   85  72  65 VRB6      29.93F HX  91
6HR MIN TEMP:  73; 6HR MAX TEMP:  86;

FOND DU LAC    CLOUDY    73  67  81 NE8       29.96S
6HR MIN TEMP:  71; 6HR MAX TEMP:  73;

SHEBOYGAN      CLOUDY    74  67  78 NW12      29.94S
6HR MIN TEMP:  71; 6HR MAX TEMP:  76;

WEST BEND      CLOUDY    77  68  73 CALM      29.95S
JUNEAU         CLOUDY    76  70  81 N7        29.96S
6HR MIN TEMP:  67; 6HR MAX TEMP:  76; 6HR PCP:  0.06;

$$

LSZ147-162-031900-
LAKE SUPERIOR

STATION/POSITION TIME  TEMP    WIND        PRES    WAVE
                       AIR SEA DIR/SP/G            HT/PER
                 (UTC) (F)     (DEG/KT/KT) (MB)    (FT/S)
W MID LAKE BUOY  1750   58 58   40/  4/  6 1016.0F   0
DEVILS ISLAND    1800   58      30/  7/  8 1016.1F
PORT WING        1700   59      30/ 11/ 12 1015.9S
SAXON HARBOR     1740   63      CALM  /  4 1015.2F
$$

LMZ867-665-643>646-031900-
LAKE MICHIGAN

STATION/POSITION TIME  TEMP    WIND        PRES    WAVE
                       AIR SEA DIR/SP/G            HT/PER
                 (UTC) (F)     (DEG/KT/KT) (MB)    (FT/S)
CHAMBERS ISLAND  1700   67     360/ 10/ 11 1014.2R
S GREEN BAY BUOY 1730   67 66   10/ 12/ 14 1015.4R



USA.gov is the U.S. government's official web portal to all federal, state and local government web resources and services.